Voltar ao catálogo

STARLINK-6062

AtivoComunicaçõesVLEO
NORAD 56104·PAYLOAD·🇺🇸 United States

Lançado Mar 29, 2023 de Cape Canaveral Space Force Station

Loading…

Próximas Passagens (próximas 24 horas)

TLE

AtualizadoSource: CelesTrak SupGP

Época: Sep 14, 2026, 21:52 UTC

1 56104C 23046M   26257.91159722 -.00026209  00000+0 -94935-3 0  2579
2 56104  42.9999 172.6821 0001345 259.2477  95.1441 15.27589306    17

Acompanhe STARLINK-6062 em tempo real com AllMySat

Download on the App Store